Location: C�mpuri de-Sus
(45.9500°N, 22.5500°E)
Time: 13:37:54
(UTC+00:00)

Lacrosse 4 Rocket - Pass Details

Date: 24 October 2021
Orbit: 537 x 619 km, 68.0° (Epoch: 07 December)

Event Time Altitude Azimuth Distance (km) Brightness Sun altitude
Rises 17:28:42 0° 322° (NW) 2,818 5.6 -21.6°
Reaches altitude 10° 17:31:01 10° 315° (NW) 1,927 4.8 -22.0°
Maximum altitude 17:35:04 39° 246° (WSW) 900 2.8 -22.7°
Enters shadow 17:38:36 13° 181° (S) 1,746 3.8 -23.3°
